| time (UTC) | temp F | wind direction | speed MPH | gust MPH | rain 1hr in | rain 24hr in | rain mn in | humidity % | barometer mb |
| 20260904101604 | 71 | 101 | 0.0 | 0.0 | 0.00 | 0.68 | 0.02 | 95 | 1013.7 |
| 20260904100604 | 71 | 208 | 0.0 | 0.0 | 0.00 | 0.68 | 0.02 | 94 | 1013.4 |
| 20260904100104 | 71 | 208 | 0.0 | 0.0 | 0.00 | 0.68 | 0.02 | 94 | 1013.5 |
| 20260904095604 | 71 | 208 | 0.0 | 0.0 | 0.00 | 0.68 | 0.02 | 95 | 1013.2 |
| 20260904095104 | 71 | 208 | 0.0 | 0.0 | 0.00 | 0.68 | 0.02 | 94 | 1013.1 |
| 20260904094104 | 70 | 208 | 0.0 | 0.0 | 0.00 | 0.68 | 0.02 | 95 | 1012.7 |
| 20260904093604 | 70 | 207 | 0.0 | 0.0 | 0.00 | 0.68 | 0.02 | 95 | 1012.7 |
| 20260904093103 | 70 | 207 | 0.0 | 0.0 | 0.00 | 0.68 | 0.02 | 94 | 1012.7 |
| 20260904092603 | 70 | 207 | 0.0 | 0.0 | 0.00 | 0.68 | 0.02 | 94 | 1012.7 |
| 20260904092103 | 70 | 207 | 0.0 | 0.0 | 0.00 | 0.68 | 0.02 | 94 | 1013.1 |
| 20260904091603 | 70 | 207 | 0.0 | 0.0 | 0.00 | 0.68 | 0.02 | 94 | 1013.2 |
| 20260904091104 | 70 | 207 | 0.0 | 0.0 | 0.00 | 0.68 | 0.02 | 94 | 1013.1 |
| 20260904090104 | 70 | 207 | 0.0 | 0.0 | 0.00 | 0.68 | 0.02 | 94 | 1013.5 |
| 20260904085604 | 70 | 207 | 0.0 | 0.0 | 0.00 | 0.68 | 0.02 | 94 | 1013.3 |
| 20260904085103 | 70 | 207 | 0.0 | 0.0 | 0.00 | 0.68 | 0.02 | 94 | 1013.3 |
| 20260904084604 | 70 | 207 | 0.0 | 0.0 | 0.00 | 0.68 | 0.02 | 94 | 1013.5 |
| 20260904084104 | 70 | 207 | 0.0 | 0.0 | 0.00 | 0.68 | 0.02 | 94 | 1013.5 |
| 20260904083603 | 70 | 207 | 0.0 | 0.0 | 0.00 | 0.68 | 0.02 | 94 | 1013.7 |
| 20260904083103 | 70 | 207 | 0.0 | 0.0 | 0.00 | 0.68 | 0.02 | 94 | 1013.7 |
| 20260904081604 | 70 | 207 | 0.0 | 0.0 | 0.00 | 0.68 | 0.02 | 94 | 1013.5 |
| 20260904080604 | 70 | 207 | 0.0 | 0.0 | 0.00 | 0.68 | 0.02 | 94 | 1013.4 |
| 20260904075604 | 70 | 207 | 0.0 | 0.0 | 0.00 | 0.68 | 0.02 | 94 | 1013.2 |
| 20260904075104 | 70 | 207 | 0.0 | 0.0 | 0.00 | 0.68 | 0.02 | 94 | 1013.1 |
| 20260904074604 | 70 | 207 | 0.0 | 0.0 | 0.00 | 0.68 | 0.02 | 94 | 1013.1 |
| 20260904074104 | 70 | 207 | 0.0 | 0.0 | 0.00 | 0.68 | 0.02 | 94 | 1013.1 |
| 20260904073104 | 70 | 207 | 0.0 | 0.0 | 0.00 | 0.68 | 0.02 | 94 | 1013.2 |
| 20260904072604 | 70 | 206 | 0.0 | 0.0 | 0.00 | 0.68 | 0.02 | 94 | 1013.3 |
| 20260904072103 | 70 | 206 | 0.0 | 0.0 | 0.00 | 0.68 | 0.02 | 94 | 1013.2 |
| 20260904071604 | 70 | 206 | 0.0 | 0.0 | 0.00 | 0.68 | 0.02 | 94 | 1013.3 |
| 20260904071104 | 70 | 206 | 0.0 | 0.0 | 0.00 | 0.68 | 0.02 | 94 | 1013.5 |
| 20260904070603 | 70 | 205 | 0.0 | 0.0 | 0.00 | 0.68 | 0.02 | 94 | 1013.6 |
| 20260904070103 | 70 | 205 | 0.0 | 0.0 | 0.00 | 0.68 | 0.02 | 94 | 1013.7 |
| 20260904065604 | 70 | 205 | 0.0 | 0.0 | 0.00 | 0.68 | 0.02 | 94 | 1013.7 |
| 20260904065104 | 70 | 205 | 0.0 | 0.0 | 0.00 | 0.68 | 0.02 | 94 | 1013.8 |
| 20260904064604 | 70 | 205 | 0.0 | 0.0 | 0.01 | 0.68 | 0.02 | 94 | 1013.8 |
| 20260904064103 | 70 | 205 | 0.0 | 0.0 | 0.01 | 0.68 | 0.02 | 94 | 1013.8 |
| 20260904063605 | 70 | 205 | 0.0 | 0.0 | 0.01 | 0.68 | 0.02 | 94 | 1013.8 |
| 20260904063105 | 70 | 204 | 0.0 | 0.0 | 0.01 | 0.68 | 0.02 | 94 | 1013.9 |
| 20260904062605 | 70 | 205 | 0.0 | 0.0 | 0.01 | 0.68 | 0.02 | 94 | 1013.9 |
| 20260904062104 | 70 | 204 | 0.0 | 0.0 | 0.01 | 0.68 | 0.02 | 94 | 1013.9 |
| 20260904061605 | 70 | 202 | 0.0 | 0.0 | 0.01 | 0.68 | 0.02 | 94 | 1014.0 |
| 20260904060604 | 70 | 202 | 0.0 | 0.0 | 0.01 | 0.68 | 0.02 | 94 | 1013.8 |
| 20260904060105 | 70 | 202 | 0.0 | 0.0 | 0.01 | 0.68 | 0.02 | 94 | 1013.8 |
| 20260904054605 | 70 | 200 | 0.0 | 0.0 | 0.00 | 0.67 | 0.01 | 94 | 1013.8 |
| 20260904054104 | 70 | 200 | 0.0 | 0.0 | 0.01 | 0.67 | 0.01 | 94 | 1014.0 |
| 20260904052604 | 70 | 200 | 0.0 | 0.0 | 0.01 | 0.67 | 0.01 | 94 | 1014.0 |
| 20260904052105 | 69 | 200 | 0.0 | 0.0 | 0.01 | 0.67 | 0.01 | 94 | 1014.2 |
| 20260904051604 | 69 | 200 | 0.0 | 0.0 | 0.01 | 0.67 | 0.01 | 94 | 1014.2 |
| 20260904051104 | 69 | 200 | 0.0 | 0.0 | 0.01 | 0.67 | 0.01 | 94 | 1014.2 |
| 20260904050605 | 69 | 200 | 0.0 | 0.0 | 0.01 | 0.67 | 0.01 | 94 | 1014.2 |
| 20260904045104 | 69 | 200 | 0.0 | 0.0 | 0.02 | 0.67 | 0.01 | 94 | 1014.2 |
| 20260904044604 | 69 | 200 | 0.0 | 0.0 | 0.02 | 0.67 | 0.01 | 94 | 1014.1 |
| 20260904044104 | 69 | 200 | 0.0 | 0.0 | 0.01 | 0.66 | 0.00 | 94 | 1014.1 |
| 20260904043605 | 70 | 200 | 0.0 | 0.0 | 0.01 | 0.66 | 0.00 | 94 | 1014.2 |
| 20260904043105 | 70 | 200 | 0.0 | 0.0 | 0.01 | 0.66 | 0.00 | 94 | 1014.2 |
| 20260904042607 | 70 | 200 | 0.0 | 0.0 | 0.01 | 0.66 | 0.00 | 94 | 1014.1 |
| 20260904042107 | 70 | 200 | 0.0 | 0.0 | 0.01 | 0.66 | 0.00 | 94 | 1014.2 |
| 20260904041607 | 70 | 200 | 0.0 | 0.0 | 0.02 | 0.66 | 0.00 | 94 | 1014.1 |
| 20260904041105 | 70 | 201 | 0.0 | 0.0 | 0.02 | 0.66 | 0.00 | 94 | 1013.9 |
| 20260904040605 | 70 | 201 | 0.0 | 0.0 | 0.02 | 0.66 | 0.00 | 93 | 1013.7 |
| 20260904040104 | 70 | 202 | 0.0 | 0.0 | 0.02 | 0.66 | 0.00 | 93 | 1013.7 |
| 20260904035605 | 70 | 203 | 0.0 | 0.0 | 0.02 | 0.66 | 0.66 | 93 | 1013.8 |
| 20260904035105 | 70 | 204 | 0.0 | 0.0 | 0.01 | 0.65 | 0.65 | 93 | 1013.7 |
| 20260904034605 | 70 | 197 | 0.0 | 0.0 | 0.01 | 0.65 | 0.65 | 93 | 1013.8 |
| 20260904033605 | 70 | 200 | 0.0 | 0.0 | 0.02 | 0.65 | 0.65 | 93 | 1013.7 |
| 20260904033105 | 70 | 203 | 0.0 | 0.0 | 0.02 | 0.65 | 0.65 | 93 | 1013.7 |
| 20260904032105 | 70 | 207 | 0.0 | 0.0 | 0.02 | 0.65 | 0.65 | 93 | 1013.6 |
| 20260904031604 | 70 | 207 | 0.0 | 0.0 | 0.02 | 0.65 | 0.65 | 93 | 1013.6 |
| 20260904031104 | 70 | 208 | 0.0 | 0.0 | 0.02 | 0.64 | 0.64 | 93 | 1013.7 |
| 20260904030605 | 70 | 208 | 0.0 | 0.0 | 0.02 | 0.64 | 0.64 | 93 | 1013.6 |
| 20260904025605 | 70 | 208 | 0.0 | 0.0 | 0.02 | 0.64 | 0.64 | 93 | 1013.5 |
| 20260904025104 | 70 | 208 | 0.0 | 0.0 | 0.02 | 0.64 | 0.64 | 93 | 1013.3 |
| 20260904024604 | 71 | 208 | 0.0 | 0.0 | 0.03 | 0.64 | 0.64 | 93 | 1013.2 |
| 20260904024104 | 71 | 209 | 0.0 | 0.0 | 0.03 | 0.64 | 0.64 | 93 | 1013.2 |
| 20260904023604 | 71 | 209 | 0.0 | 0.0 | 0.02 | 0.63 | 0.63 | 93 | 1013.2 |
| 20260904023105 | 71 | 209 | 0.0 | 0.0 | 0.02 | 0.63 | 0.63 | 93 | 1013.2 |
| 20260904022605 | 71 | 209 | 0.0 | 0.0 | 0.03 | 0.63 | 0.63 | 93 | 1013.2 |
| 20260904022104 | 71 | 210 | 0.0 | 0.0 | 0.03 | 0.63 | 0.63 | 93 | 1013.1 |
| 20260904021604 | 71 | 210 | 0.0 | 0.0 | 0.03 | 0.63 | 0.63 | 93 | 1013.1 |
| 20260904020604 | 71 | 210 | 0.0 | 0.0 | 0.02 | 0.62 | 0.62 | 93 | 1013.0 |
| 20260904020105 | 71 | 210 | 0.0 | 0.0 | 0.03 | 0.62 | 0.62 | 93 | 1013.0 |
| 20260904015604 | 71 | 210 | 0.0 | 0.0 | 0.03 | 0.62 | 0.62 | 93 | 1013.0 |
| 20260904015105 | 71 | 210 | 0.0 | 0.0 | 0.03 | 0.62 | 0.62 | 93 | 1013.0 |
| 20260904014604 | 71 | 210 | 0.0 | 0.0 | 0.02 | 0.61 | 0.61 | 93 | 1013.1 |
| 20260904013104 | 71 | 210 | 0.0 | 0.0 | 0.03 | 0.61 | 0.61 | 92 | 1013.3 |
| 20260904012605 | 71 | 210 | 0.0 | 0.0 | 0.02 | 0.60 | 0.60 | 93 | 1013.4 |
| 20260904012105 | 71 | 210 | 0.0 | 0.0 | 0.03 | 0.60 | 0.60 | 93 | 1013.2 |
| 20260904010604 | 72 | 210 | 0.0 | 0.0 | 0.04 | 0.60 | 0.60 | 93 | 1013.0 |
| 20260904005605 | 72 | 210 | 0.0 | 0.0 | 0.03 | 0.59 | 0.59 | 92 | 1013.3 |
| 20260904004104 | 72 | 210 | 0.0 | 0.0 | 0.04 | 0.58 | 0.58 | 92 | 1013.0 |
| 20260904003605 | 72 | 210 | 0.0 | 0.0 | 0.04 | 0.58 | 0.58 | 92 | 1013.0 |
| 20260904003105 | 72 | 211 | 0.0 | 0.0 | 0.04 | 0.58 | 0.58 | 92 | 1012.9 |
| 20260904002604 | 72 | 211 | 0.0 | 0.0 | 0.05 | 0.58 | 0.58 | 92 | 1012.6 |
| 20260904002104 | 72 | 211 | 0.0 | 0.0 | 0.04 | 0.57 | 0.57 | 92 | 1012.5 |
| 20260904001605 | 72 | 211 | 0.0 | 0.0 | 0.05 | 0.57 | 0.57 | 92 | 1012.5 |
| 20260904001105 | 72 | 211 | 0.0 | 0.0 | 0.04 | 0.56 | 0.56 | 92 | 1012.4 |
| 20260904000104 | 73 | 211 | 0.0 | 0.0 | 0.05 | 0.56 | 0.56 | 92 | 1012.3 |
| 20260903235605 | 73 | 211 | 0.0 | 0.0 | 0.05 | 0.56 | 0.56 | 92 | 1012.3 |
| 20260903235105 | 73 | 211 | 0.0 | 0.0 | 0.05 | 0.55 | 0.55 | 92 | 1012.0 |
| 20260903234604 | 72 | 212 | 0.0 | 0.0 | 0.05 | 0.55 | 0.55 | 92 | 1012.4 |
| 20260903234104 | 72 | 212 | 0.0 | 0.0 | 0.05 | 0.54 | 0.54 | 92 | 1012.4 |
| 20260903233604 | 72 | 212 | 0.0 | 0.0 | 0.05 | 0.54 | 0.54 | 92 | 1012.5 |
| 20260903233105 | 72 | 212 | 0.0 | 0.0 | 0.06 | 0.54 | 0.54 | 91 | 1012.5 |
| 20260903232604 | 72 | 212 | 0.0 | 0.0 | 0.05 | 0.53 | 0.53 | 91 | 1012.5 |
| 20260903232104 | 72 | 209 | 0.0 | 0.0 | 0.06 | 0.53 | 0.53 | 91 | 1012.1 |
| 20260903231604 | 72 | 209 | 0.0 | 0.0 | 0.06 | 0.52 | 0.52 | 91 | 1012.2 |
| 20260903231104 | 73 | 209 | 0.0 | 0.0 | 0.06 | 0.52 | 0.52 | 91 | 1012.3 |
| 20260903225104 | 73 | 209 | 0.0 | 0.0 | 0.07 | 0.50 | 0.50 | 91 | 1012.9 |
| 20260903224104 | 73 | 163 | 0.0 | 0.0 | 0.08 | 0.49 | 0.49 | 91 | 1013.1 |
| 20260903223604 | 73 | 161 | 0.0 | 0.0 | 0.10 | 0.49 | 0.49 | 91 | 1013.2 |
| 20260903223104 | 73 | 161 | 0.0 | 0.0 | 0.10 | 0.48 | 0.48 | 90 | 1013.3 |
| 20260903222104 | 72 | 161 | 0.0 | 0.0 | 0.12 | 0.47 | 0.47 | 90 | 1013.5 |
| 20260903221604 | 72 | 161 | 0.0 | 0.0 | 0.13 | 0.46 | 0.46 | 90 | 1013.5 |
| 20260903221104 | 72 | 161 | 0.0 | 0.0 | 0.15 | 0.46 | 0.46 | 90 | 1013.4 |
| 20260903220605 | 72 | 161 | 0.0 | 1.0 | 0.16 | 0.45 | 0.45 | 90 | 1013.3 |
| 20260903220105 | 72 | 161 | 0.0 | 1.0 | 0.17 | 0.44 | 0.44 | 89 | 1013.3 |
| 20260903215105 | 72 | 160 | 0.0 | 1.0 | 0.21 | 0.43 | 0.43 | 89 | 1013.5 |
| 20260903214604 | 72 | 161 | 1.0 | 2.0 | 0.23 | 0.42 | 0.42 | 89 | 1013.7 |
| 20260903214104 | 72 | 159 | 0.0 | 1.0 | 0.25 | 0.41 | 0.41 | 89 | 1013.9 |
| 20260903213604 | 72 | 159 | 1.0 | 3.0 | 0.26 | 0.39 | 0.39 | 88 | 1014.0 |
| 20260903212604 | 72 | 161 | 0.0 | 2.0 | 0.30 | 0.37 | 0.37 | 87 | 1014.4 |
| 20260903212104 | 72 | 161 | 0.0 | 1.0 | 0.31 | 0.35 | 0.35 | 87 | 1014.2 |
| 20260903211604 | 73 | 161 | 0.0 | 2.0 | 0.31 | 0.33 | 0.33 | 87 | 1014.0 |
| 20260903211104 | 73 | 164 | 1.0 | 3.0 | 0.31 | 0.31 | 0.31 | 87 | 1014.0 |
| 20260903205604 | 73 | 144 | 1.0 | 3.0 | 0.24 | 0.24 | 0.24 | 85 | 1014.8 |
| 20260903205104 | 74 | 187 | 2.0 | 5.0 | 0.22 | 0.22 | 0.22 | 84 | 1015.3 |
| 20260903204603 | 74 | 196 | 1.0 | 5.0 | 0.19 | 0.19 | 0.19 | 83 | 1015.3 |
| 20260903204104 | 75 | 171 | 3.0 | 6.0 | 0.16 | 0.16 | 0.16 | 82 | 1015.9 |
| 20260903203604 | 76 | 184 | 2.0 | 5.0 | 0.13 | 0.13 | 0.13 | 79 | 1016.1 |
| 20260903203104 | 77 | 223 | 1.0 | 5.0 | 0.10 | 0.10 | 0.10 | 76 | 1015.6 |
| 20260903202104 | 80 | 11 | 2.0 | 3.0 | 0.04 | 0.04 | 0.04 | 73 | 1013.7 |
| 20260903201604 | 83 | 1 | 0.0 | 23.0 | 0.02 | 0.02 | 0.02 | 70 | 1013.5 |
| 20260903201104 | 86 | 323 | 0.0 | 0.0 | 0.00 | 0.00 | 0.00 | 72 | 1013.6 |
| 20260903200604 | 87 | 161 | 0.0 | 0.0 | 0.00 | 0.00 | 0.00 | 71 | 1010.8 |
| 20260903200104 | 87 | 119 | 0.0 | 0.0 | 0.00 | 0.00 | 0.00 | 71 | 1010.5 |
| 20260903195604 | 87 | 176 | 0.0 | 0.0 | 0.00 | 0.00 | 0.00 | 70 | 1010.3 |
| 20260903195104 | 88 | 173 | 0.0 | 0.0 | 0.00 | 0.00 | 0.00 | 70 | 1010.3 |
| 20260903194604 | 88 | 157 | 0.0 | 0.0 | 0.00 | 0.00 | 0.00 | 69 | 1010.7 |
| 20260903194104 | 88 | 121 | 0.0 | 0.0 | 0.00 | 0.00 | 0.00 | 69 | 1010.1 |
| 20260903193604 | 89 | 82 | 0.0 | 0.0 | 0.00 | 0.00 | 0.00 | 69 | 1010.5 |
| 20260903193104 | 89 | 190 | 0.0 | 1.0 | 0.00 | 0.00 | 0.00 | 68 | 1010.2 |
| 20260903192604 | 89 | 181 | 2.0 | 3.0 | 0.00 | 0.00 | 0.00 | 68 | 1010.6 |
| 20260903192104 | 89 | 169 | 3.0 | 6.0 | 0.00 | 0.00 | 0.00 | 68 | 1010.6 |
| 20260903191603 | 89 | 215 | 3.0 | 5.0 | 0.00 | 0.00 | 0.00 | 68 | 1010.8 |
| 20260903190604 | 89 | 201 | 3.0 | 5.0 | 0.00 | 0.00 | 0.00 | 66 | 1011.2 |
| 20260903190104 | 89 | 243 | 3.0 | 6.0 | 0.00 | 0.00 | 0.00 | 67 | 1011.2 |
| 20260903185604 | 89 | 172 | 3.0 | 5.0 | 0.00 | 0.00 | 0.00 | 66 | 1011.4 |
| 20260903184604 | 89 | 184 | 2.0 | 6.0 | 0.00 | 0.00 | 0.00 | 66 | 1011.6 |
| 20260903183604 | 90 | 156 | 2.0 | 6.0 | 0.00 | 0.00 | 0.00 | 65 | 1011.8 |
| 20260903183104 | 90 | 159 | 2.0 | 6.0 | 0.00 | 0.00 | 0.00 | 65 | 1011.9 |
| 20260903182104 | 89 | 131 | 0.0 | 0.0 | 0.00 | 0.00 | 0.00 | 66 | 1011.7 |
| 20260903181604 | 89 | 142 | 0.0 | 0.0 | 0.00 | 0.00 | 0.00 | 66 | 1011.7 |
| 20260903181105 | 89 | 93 | 0.0 | 0.0 | 0.00 | 0.00 | 0.00 | 66 | 1011.7 |
| 20260903180604 | 89 | 129 | 0.0 | 0.0 | 0.00 | 0.00 | 0.00 | 67 | 1011.7 |
| 20260903180104 | 88 | 144 | 0.0 | 0.0 | 0.00 | 0.00 | 0.00 | 69 | 1011.8 |
| 20260903175604 | 88 | 95 | 0.0 | 0.0 | 0.00 | 0.00 | 0.00 | 69 | 1011.8 |
| 20260903175104 | 87 | 173 | 0.0 | 0.0 | 0.00 | 0.00 | 0.00 | 71 | 1011.9 |
| 20260903174605 | 86 | 127 | 0.0 | 2.0 | 0.00 | 0.00 | 0.00 | 73 | 1012.1 |
| 20260903174104 | 85 | 72 | 1.0 | 3.0 | 0.00 | 0.00 | 0.00 | 74 | 1012.2 |
| 20260903173604 | 84 | 159 | 0.0 | 0.0 | 0.00 | 0.00 | 0.00 | 74 | 1012.3 |
| 20260903173104 | 84 | 100 | 0.0 | 0.0 | 0.00 | 0.00 | 0.00 | 76 | 1012.2 |
| 20260903172604 | 84 | 99 | 0.0 | 0.0 | 0.00 | 0.00 | 0.00 | 78 | 1012.2 |
| 20260903172104 | 83 | 64 | 0.0 | 0.0 | 0.00 | 0.00 | 0.00 | 78 | 1012.1 |
| 20260903171604 | 83 | 91 | 0.0 | 0.0 | 0.00 | 0.00 | 0.00 | 80 | 1012.1 |
| 20260903171104 | 83 | 155 | 0.0 | 0.0 | 0.00 | 0.00 | 0.00 | 82 | 1012.1 |
| 20260903170603 | 82 | 168 | 0.0 | 0.0 | 0.00 | 0.00 | 0.00 | 84 | 1012.0 |
| 20260903170104 | 81 | 140 | 0.0 | 0.0 | 0.00 | 0.00 | 0.00 | 85 | 1012.1 |
| 20260903165604 | 81 | 131 | 0.0 | 0.0 | 0.00 | 0.00 | 0.00 | 86 | 1012.3 |
| 20260903165104 | 81 | 114 | 0.0 | 0.0 | 0.00 | 0.00 | 0.00 | 87 | 1012.5 |
| 20260903164604 | 80 | 26 | 1.0 | 3.0 | 0.00 | 0.00 | 0.00 | 87 | 1012.7 |
| 20260903164104 | 81 | 15 | 1.0 | 3.0 | 0.00 | 0.00 | 0.00 | 87 | 1012.9 |
| 20260903163604 | 81 | 25 | 2.0 | 5.0 | 0.00 | 0.00 | 0.00 | 87 | 1013.1 |
| 20260903163104 | 81 | 218 | 0.0 | 2.0 | 0.00 | 0.00 | 0.00 | 87 | 1013.2 |
| 20260903162604 | 81 | 230 | 0.0 | 1.0 | 0.00 | 0.00 | 0.00 | 87 | 1013.3 |
| 20260903162104 | 81 | 230 | 0.0 | 1.0 | 0.00 | 0.00 | 0.00 | 87 | 1013.5 |
| 20260903161604 | 81 | 230 | 0.0 | 1.0 | 0.00 | 0.00 | 0.00 | 86 | 1013.5 |
| 20260903161104 | 81 | 230 | 0.0 | 1.0 | 0.00 | 0.00 | 0.00 | 86 | 1013.6 |
| 20260903160604 | 81 | 223 | 0.0 | 0.0 | 0.00 | 0.00 | 0.00 | 86 | 1013.8 |
| 20260903160104 | 81 | 223 | 0.0 | 1.0 | 0.00 | 0.00 | 0.00 | 86 | 1013.8 |
| 20260903155604 | 81 | 223 | 0.0 | 1.0 | 0.00 | 0.00 | 0.00 | 86 | 1013.6 |
| 20260903155104 | 81 | 223 | 0.0 | 0.0 | 0.00 | 0.00 | 0.00 | 86 | 1013.3 |
| 20260903154604 | 81 | 223 | 0.0 | 0.0 | 0.00 | 0.00 | 0.00 | 86 | 1013.1 |
| 20260903153105 | 81 | 223 | 0.0 | 1.0 | 0.00 | 0.00 | 0.00 | 85 | 1012.8 |
| 20260903152604 | 81 | 222 | 0.0 | 1.0 | 0.00 | 0.00 | 0.00 | 85 | 1012.7 |
| 20260903151604 | 81 | 208 | 0.0 | 0.0 | 0.00 | 0.00 | 0.00 | 85 | 1012.8 |
| 20260903151103 | 81 | 243 | 0.0 | 0.0 | 0.00 | 0.00 | 0.00 | 85 | 1012.6 |
| 20260903150604 | 81 | 242 | 0.0 | 0.0 | 0.00 | 0.00 | 0.00 | 85 | 1012.8 |
| 20260903150104 | 81 | 220 | 0.0 | 0.0 | 0.00 | 0.00 | 0.00 | 84 | 1012.4 |
| 20260903145604 | 81 | 220 | 0.0 | 0.0 | 0.00 | 0.00 | 0.00 | 84 | 1012.4 |
| 20260903144604 | 81 | 218 | 0.0 | 0.0 | 0.00 | 0.00 | 0.00 | 84 | 1012.6 |
| 20260903144104 | 81 | 196 | 0.0 | 0.0 | 0.00 | 0.00 | 0.00 | 84 | 1012.7 |
| 20260903143603 | 81 | 196 | 0.0 | 0.0 | 0.00 | 0.00 | 0.00 | 84 | 1012.6 |
| 20260903142604 | 81 | 202 | 0.0 | 0.0 | 0.00 | 0.00 | 0.00 | 85 | 1012.5 |
| 20260903141604 | 81 | 202 | 1.0 | 2.0 | 0.00 | 0.00 | 0.00 | 85 | 1012.4 |
| 20260903141104 | 81 | 198 | 1.0 | 3.0 | 0.00 | 0.00 | 0.00 | 85 | 1012.2 |
| 20260903140603 | 81 | 194 | 0.0 | 1.0 | 0.00 | 0.00 | 0.00 | 86 | 1012.2 |
| 20260903135604 | 81 | 204 | 0.0 | 3.0 | 0.00 | 0.00 | 0.00 | 87 | 1012.3 |
| 20260903135104 | 81 | 199 | 0.0 | 1.0 | 0.00 | 0.00 | 0.00 | 87 | 1012.5 |
| 20260903134104 | 80 | 248 | 1.0 | 2.0 | 0.00 | 0.00 | 0.00 | 88 | 1012.5 |
| 20260903133605 | 80 | 178 | 0.0 | 0.0 | 0.00 | 0.00 | 0.00 | 88 | 1012.3 |
| 20260903133104 | 79 | 225 | 0.0 | 0.0 | 0.00 | 0.00 | 0.00 | 88 | 1012.4 |
| 20260903132603 | 79 | 228 | 0.0 | 2.0 | 0.00 | 0.00 | 0.00 | 88 | 1012.7 |
| 20260903132103 | 79 | 233 | 1.0 | 3.0 | 0.00 | 0.00 | 0.00 | 88 | 1012.7 |
| 20260903131603 | 78 | 181 | 2.0 | 3.0 | 0.00 | 0.00 | 0.00 | 88 | 1012.7 |
| 20260903131104 | 78 | 244 | 1.0 | 3.0 | 0.00 | 0.00 | 0.00 | 88 | 1012.6 |
| 20260903130604 | 78 | 244 | 0.0 | 0.0 | 0.00 | 0.00 | 0.00 | 88 | 1012.6 |
| 20260903125604 | 77 | 198 | 1.0 | 2.0 | 0.00 | 0.00 | 0.00 | 88 | 1012.7 |
| 20260903125104 | 77 | 197 | 1.0 | 3.0 | 0.00 | 0.00 | 0.00 | 88 | 1012.8 |
| 20260903124604 | 77 | 197 | 2.0 | 3.0 | 0.00 | 0.00 | 0.00 | 88 | 1012.8 |
| 20260903124104 | 76 | 198 | 0.0 | 3.0 | 0.00 | 0.00 | 0.00 | 88 | 1012.9 |
| 20260903123604 | 75 | 153 | 1.0 | 3.0 | 0.00 | 0.00 | 0.00 | 87 | 1012.9 |
| 20260903122104 | 74 | 156 | 0.0 | 0.0 | 0.00 | 0.00 | 0.00 | 86 | 1012.9 |
| 20260903121604 | 74 | 156 | 0.0 | 0.0 | 0.00 | 0.00 | 0.00 | 86 | 1012.9 |
| 20260903121104 | 74 | 156 | 0.0 | 0.0 | 0.00 | 0.00 | 0.00 | 85 | 1012.9 |
| 20260903120604 | 74 | 156 | 0.0 | 0.0 | 0.00 | 0.00 | 0.00 | 84 | 1012.8 |
| 20260903120104 | 74 | 156 | 0.0 | 0.0 | 0.00 | 0.00 | 0.00 | 84 | 1012.8 |
| 20260903115603 | 74 | 156 | 0.0 | 0.0 | 0.00 | 0.00 | 0.00 | 84 | 1012.8 |
| 20260903115104 | 74 | 156 | 0.0 | 0.0 | 0.00 | 0.00 | 0.00 | 84 | 1012.8 |
| 20260903114604 | 74 | 156 | 0.0 | 0.0 | 0.00 | 0.00 | 0.00 | 84 | 1012.8 |
| 20260903114104 | 74 | 156 | 0.0 | 0.0 | 0.00 | 0.00 | 0.00 | 84 | 1012.8 |
| 20260903113605 | 74 | 156 | 0.0 | 0.0 | 0.00 | 0.00 | 0.00 | 84 | 1012.8 |
| 20260903113108 | 74 | 156 | 0.0 | 0.0 | 0.00 | 0.00 | 0.00 | 84 | 1012.8 |
| 20260903112604 | 74 | 156 | 0.0 | 0.0 | 0.00 | 0.00 | 0.00 | 84 | 1012.8 |
| 20260903112104 | 74 | 156 | 0.0 | 0.0 | 0.00 | 0.00 | 0.00 | 84 | 1012.8 |
| 20260903111604 | 74 | 156 | 0.0 | 0.0 | 0.00 | 0.00 | 0.00 | 83 | 1012.7 |
| 20260903111104 | 74 | 156 | 0.0 | 0.0 | 0.00 | 0.00 | 0.00 | 83 | 1012.6 |
| 20260903110604 | 74 | 156 | 0.0 | 0.0 | 0.00 | 0.00 | 0.00 | 83 | 1012.6 |
| 20260903110103 | 74 | 156 | 0.0 | 0.0 | 0.00 | 0.00 | 0.00 | 83 | 1012.4 |
| 20260903105603 | 74 | 156 | 0.0 | 0.0 | 0.00 | 0.00 | 0.00 | 83 | 1012.3 |
| 20260903105103 | 74 | 156 | 0.0 | 0.0 | 0.00 | 0.00 | 0.00 | 83 | 1012.3 |
| 20260903104603 | 75 | 156 | 0.0 | 0.0 | 0.00 | 0.00 | 0.00 | 83 | 1012.3 |
| 20260903104104 | 75 | 156 | 0.0 | 0.0 | 0.00 | 0.00 | 0.00 | 83 | 1012.3 |
| 20260903103604 | 75 | 156 | 0.0 | 0.0 | 0.00 | 0.00 | 0.00 | 83 | 1012.3 |
| 20260903103104 | 75 | 156 | 0.0 | 0.0 | 0.00 | 0.00 | 0.00 | 83 | 1012.3 |
| 20260903102604 | 75 | 156 | 0.0 | 0.0 | 0.00 | 0.00 | 0.00 | 83 | 1012.3 |